AFR939 TNCM-LFPG

Flight info

Callsign AFR939
Flight time N/A
Altitude 39000
Route MNOLO M576 OBIKE DCT 20N060W 23N055W 26N050W 32N040W 35N030W 3830N02000W DCT DETOX/N0476F390 DCT PETEK DCT LOTEE DCT GATMO DCT NTS DCT ANG UN741 TEMTO DCT ROMGO
Aircraft A332/H-SDE3GHIJ2J3J5M1RVWXY/LB2D1

Departure

Time 2026-05-08 05:02
Airport Princess Juliana International Airport (TNCM)

Arrival

Time N/A
Airport Charles de Gaulle International Airport (LFPG)
Time Latitude Longitude Altitude Speed Heading
2026-05-08 03:53 18.04335 -63.11293 25 ft 0 kts 352°
2026-05-08 04:50 18.04324 -63.11291 27 ft 2 kts 352°
2026-05-08 04:50 18.04329 -63.11292 24 ft 0 kts 352°
2026-05-08 04:51 18.04328 -63.11292 26 ft 2 kts 352°
2026-05-08 04:51 18.04312 -63.11289 26 ft 2 kts 352°
2026-05-08 04:51 18.04296 -63.11287 30 ft 2 kts 352°
2026-05-08 04:51 18.04280 -63.11285 30 ft 2 kts 319°
2026-05-08 04:52 18.04275 -63.11273 30 ft 2 kts 255°
2026-05-08 04:52 18.04280 -63.11260 30 ft 2 kts 243°
2026-05-08 04:52 18.04286 -63.11247 30 ft 2 kts 237°
2026-05-08 04:52 18.04290 -63.11242 30 ft 0 kts 237°
2026-05-08 04:57 18.04287 -63.11247 27 ft 0 kts 237°
2026-05-08 04:58 18.04272 -63.11271 26 ft 8 kts 237°
2026-05-08 04:58 18.04218 -63.11306 25 ft 12 kts 189°
2026-05-08 04:58 18.04117 -63.11291 28 ft 17 kts 171°
2026-05-08 04:58 18.04048 -63.11208 26 ft 19 kts 81°
2026-05-08 04:59 18.04072 -63.11050 26 ft 25 kts 81°
2026-05-08 04:59 18.04102 -63.10845 28 ft 32 kts 81°
2026-05-08 04:59 18.04137 -63.10598 28 ft 36 kts 81°
2026-05-08 04:59 18.04176 -63.10321 23 ft 40 kts 82°
2026-05-08 05:00 18.04218 -63.10028 25 ft 37 kts 81°
2026-05-08 05:00 18.04288 -63.09874 26 ft 12 kts 75°
2026-05-08 05:00 18.04248 -63.09854 28 ft 6 kts 221°
2026-05-08 05:00 18.04237 -63.09886 28 ft 0 kts 262°
2026-05-08 05:01 18.04237 -63.09891 27 ft 7 kts 262°
2026-05-08 05:01 18.04192 -63.10199 25 ft 80 kts 261°
2026-05-08 05:01 18.04075 -63.11020 26 ft 145 kts 261°
2026-05-08 05:02 18.03926 -63.12196 421 ft 166 kts 267°
2026-05-08 05:02 18.03908 -63.13405 1134 ft 167 kts 268°
2026-05-08 05:02 18.03766 -63.14629 1821 ft 177 kts 261°
2026-05-08 05:02 18.03561 -63.15977 2055 ft 194 kts 260°
2026-05-08 05:03 18.03538 -63.17439 2321 ft 208 kts 287°
2026-05-08 05:03 18.04333 -63.18700 2651 ft 212 kts 328°
2026-05-08 05:03 18.05731 -63.19107 2990 ft 216 kts 10°
2026-05-08 05:03 18.07104 -63.18433 3337 ft 227 kts 39°
2026-05-08 05:04 18.08268 -63.17244 3779 ft 240 kts 50°
2026-05-08 05:04 18.09335 -63.15837 4243 ft 252 kts 53°
2026-05-08 05:04 18.10390 -63.14343 4907 ft 258 kts 53°
2026-05-08 05:04 18.11535 -63.12865 5575 ft 263 kts 49°
2026-05-08 05:05 18.12732 -63.11429 6335 ft 264 kts 49°
2026-05-08 05:05 18.13952 -63.09985 7078 ft 265 kts 49°
2026-05-08 05:05 18.15188 -63.08546 7821 ft 266 kts 47°
2026-05-08 05:05 18.16459 -63.07119 8565 ft 269 kts 46°
2026-05-08 05:06 18.17760 -63.05693 9309 ft 272 kts 45°
2026-05-08 05:06 18.19095 -63.04275 10064 ft 274 kts 44°
2026-05-08 05:06 18.20478 -63.02813 10432 ft 291 kts 44°
2026-05-08 05:06 18.21920 -63.01214 10700 ft 311 kts 46°
2026-05-08 05:07 18.23430 -62.99486 10954 ft 329 kts 46°
2026-05-08 05:07 18.24990 -62.97684 11207 ft 345 kts 46°
2026-05-08 05:07 18.26645 -62.95777 11490 ft 358 kts 46°
2026-05-08 05:07 18.28343 -62.93830 11976 ft 364 kts 46°
2026-05-08 05:08 18.30070 -62.91860 12507 ft 368 kts 45°
2026-05-08 05:08 18.31820 -62.89870 13042 ft 372 kts 45°
2026-05-08 05:08 18.33591 -62.87860 13616 ft 375 kts 45°
2026-05-08 05:08 18.35372 -62.85842 14127 ft 378 kts 45°
2026-05-08 05:09 18.37170 -62.83803 14620 ft 381 kts 45°
2026-05-08 05:09 18.38974 -62.81758 15132 ft 383 kts 45°
2026-05-08 05:09 18.40791 -62.79697 15627 ft 385 kts 45°
2026-05-08 05:09 18.42620 -62.77620 16115 ft 387 kts 45°
2026-05-08 05:10 18.44454 -62.75538 16598 ft 390 kts 45°
2026-05-08 05:10 18.48166 -62.71320 17515 ft 395 kts 45°
2026-05-08 05:10 18.50038 -62.69192 17971 ft 397 kts 45°
2026-05-08 05:11 18.51926 -62.67046 18401 ft 400 kts 45°
2026-05-08 05:11 18.53822 -62.64888 18782 ft 402 kts 45°
2026-05-08 05:11 18.55724 -62.62723 19197 ft 403 kts 45°
2026-05-08 05:11 18.57629 -62.60554 19599 ft 404 kts 45°
2026-05-08 05:12 18.59518 -62.58402 19996 ft 405 kts 45°
2026-05-08 05:12 18.61436 -62.56217 20402 ft 406 kts 45°
2026-05-08 05:12 18.63356 -62.54029 20796 ft 407 kts 46°
2026-05-08 05:12 18.65290 -62.51824 21171 ft 409 kts 45°
2026-05-08 05:13 18.67224 -62.49618 21589 ft 410 kts 46°
2026-05-08 05:13 18.69158 -62.47412 21967 ft 411 kts 46°
2026-05-08 05:13 18.71103 -62.45192 22352 ft 413 kts 46°
2026-05-08 05:13 18.73056 -62.42963 22727 ft 414 kts 46°
2026-05-08 05:14 18.75014 -62.40727 23101 ft 416 kts 46°
2026-05-08 05:14 18.76982 -62.38478 23487 ft 417 kts 46°
2026-05-08 05:14 18.78950 -62.36228 23803 ft 419 kts 46°
2026-05-08 05:14 18.80931 -62.33964 24103 ft 421 kts 46°
2026-05-08 05:15 18.82924 -62.31684 24397 ft 423 kts 46°
2026-05-08 05:15 18.84923 -62.29398 24693 ft 425 kts 46°
2026-05-08 05:15 18.86928 -62.27103 24985 ft 426 kts 46°
2026-05-08 05:15 18.88938 -62.24802 25287 ft 428 kts 46°
2026-05-08 05:16 18.90963 -62.22482 25610 ft 429 kts 46°
2026-05-08 05:16 18.92991 -62.20157 25932 ft 430 kts 46°
2026-05-08 05:16 18.95021 -62.17830 26229 ft 431 kts 46°
2026-05-08 05:16 18.97058 -62.15502 26520 ft 433 kts 45°
2026-05-08 05:17 18.99132 -62.13234 26805 ft 434 kts 44°
2026-05-08 05:17 19.01278 -62.10974 27090 ft 436 kts 43°
2026-05-08 05:17 19.03449 -62.08727 27374 ft 437 kts 43°
2026-05-08 05:17 19.05632 -62.06478 27656 ft 439 kts 43°
2026-05-08 05:18 19.07824 -62.04217 27931 ft 441 kts 43°
2026-05-08 05:18 19.10018 -62.01946 28188 ft 442 kts 43°
2026-05-08 05:18 19.12213 -61.99663 28465 ft 444 kts 43°
2026-05-08 05:18 19.14422 -61.97360 28733 ft 446 kts 43°
2026-05-08 05:19 19.16632 -61.95050 28993 ft 447 kts 43°
2026-05-08 05:19 19.18850 -61.92731 29249 ft 449 kts 43°
2026-05-08 05:19 19.21074 -61.90403 29496 ft 451 kts 43°
2026-05-08 05:19 19.23310 -61.88063 29705 ft 452 kts 43°
2026-05-08 05:20 19.25548 -61.85719 29954 ft 454 kts 43°
2026-05-08 05:20 19.27794 -61.83367 30209 ft 455 kts 43°
2026-05-08 05:20 19.30044 -61.81009 30486 ft 454 kts 43°
2026-05-08 05:20 19.31495 -61.79415 30678 ft 455 kts 46°
2026-05-08 05:21 19.33456 -61.76792 30946 ft 457 kts 53°
2026-05-08 05:21 19.35537 -61.72851 31298 ft 460 kts 62°
2026-05-08 05:21 19.36402 -61.70812 31481 ft 460 kts 63°
2026-05-08 05:21 19.37643 -61.67684 31745 ft 460 kts 65°
2026-05-08 05:22 19.39214 -61.63514 32134 ft 459 kts 65°
2026-05-08 05:22 19.39997 -61.61398 32401 ft 457 kts 65°
2026-05-08 05:22 19.41152 -61.58269 32769 ft 454 kts 65°
2026-05-08 05:22 19.42306 -61.55162 33039 ft 454 kts 65°
2026-05-08 05:23 19.43471 -61.52042 33298 ft 454 kts 65°
2026-05-08 05:23 19.44636 -61.48938 33542 ft 454 kts 65°
2026-05-08 05:23 19.45791 -61.45869 33794 ft 454 kts 65°
2026-05-08 05:23 19.46963 -61.42759 34040 ft 453 kts 65°
2026-05-08 05:24 19.48135 -61.39651 34259 ft 453 kts 65°
2026-05-08 05:24 19.49302 -61.36552 34460 ft 453 kts 65°
2026-05-08 05:24 19.50471 -61.33448 34666 ft 453 kts 65°
2026-05-08 05:25 19.52818 -61.27208 34837 ft 458 kts 65°
2026-05-08 05:25 19.53998 -61.24066 35054 ft 458 kts 65°
2026-05-08 05:25 19.55171 -61.20938 35260 ft 457 kts 65°
2026-05-08 05:25 19.56346 -61.17805 35458 ft 457 kts 65°
2026-05-08 05:26 19.57519 -61.14673 35647 ft 457 kts 65°
2026-05-08 05:26 19.58691 -61.11544 35822 ft 457 kts 65°
2026-05-08 05:26 19.59848 -61.08453 36003 ft 457 kts 65°
2026-05-08 05:26 19.61014 -61.05333 36341 ft 452 kts 65°
2026-05-08 05:27 19.62171 -61.02236 36532 ft 452 kts 65°
2026-05-08 05:27 19.64512 -60.95977 36620 ft 458 kts 65°
2026-05-08 05:27 19.65685 -60.92833 36758 ft 459 kts 66°
2026-05-08 05:28 19.66861 -60.89682 36925 ft 459 kts 66°
2026-05-08 05:28 19.68033 -60.86534 37127 ft 458 kts 66°
2026-05-08 05:28 19.69206 -60.83386 37290 ft 458 kts 66°
2026-05-08 05:28 19.70376 -60.80242 37450 ft 458 kts 66°
2026-05-08 05:29 19.71543 -60.77104 37599 ft 458 kts 66°
2026-05-08 05:29 19.72714 -60.73955 37772 ft 458 kts 66°
2026-05-08 05:29 19.73890 -60.70793 37655 ft 464 kts 66°
2026-05-08 05:30 19.76269 -60.64390 37887 ft 465 kts 66°
2026-05-08 05:30 19.77453 -60.61196 38058 ft 465 kts 66°
2026-05-08 05:30 19.78637 -60.57999 38216 ft 465 kts 66°
2026-05-08 05:30 19.79821 -60.54803 38345 ft 465 kts 66°
2026-05-08 05:31 19.80999 -60.51616 38684 ft 460 kts 66°
2026-05-08 05:31 19.82164 -60.48466 38901 ft 458 kts 66°
2026-05-08 05:31 19.83330 -60.45312 39007 ft 458 kts 66°
2026-05-08 05:32 19.85683 -60.38950 38923 ft 466 kts 66°
2026-05-08 05:32 19.88050 -60.32535 39051 ft 468 kts 66°
2026-05-08 05:33 19.90437 -60.26057 39063 ft 473 kts 66°
2026-05-08 05:33 19.92828 -60.19561 39063 ft 478 kts 66°
2026-05-08 05:34 19.95262 -60.12940 39062 ft 483 kts 66°
2026-05-08 05:34 19.97717 -60.06250 39062 ft 488 kts 66°
2026-05-08 05:35 20.00432 -59.99639 39067 ft 484 kts 57°
2026-05-08 05:35 20.03980 -59.93587 39064 ft 481 kts 54°
2026-05-08 05:36 20.07679 -59.87667 39066 ft 480 kts 54°
2026-05-08 05:36 20.11409 -59.81760 39062 ft 483 kts 54°
2026-05-08 05:37 20.15151 -59.75801 39064 ft 485 kts 54°
2026-05-08 05:37 20.18887 -59.69820 39062 ft 485 kts 54°
2026-05-08 05:38 20.22615 -59.63839 39073 ft 484 kts 54°
2026-05-08 05:38 20.26326 -59.57878 39052 ft 483 kts 54°
2026-05-08 05:39 20.30047 -59.51898 39053 ft 485 kts 54°
2026-05-08 05:39 20.33758 -59.45929 39068 ft 486 kts 54°
2026-05-08 05:40 20.37496 -59.39909 39055 ft 486 kts 54°
2026-05-08 05:40 20.41224 -59.33899 39071 ft 486 kts 54°
2026-05-08 05:41 20.44954 -59.27880 39066 ft 487 kts 54°
2026-05-08 05:41 20.48696 -59.21835 39064 ft 488 kts 54°
2026-05-08 05:42 20.52410 -59.15829 39067 ft 487 kts 54°
2026-05-08 05:42 20.56142 -59.09786 39063 ft 487 kts 54°
2026-05-08 05:43 20.59873 -59.03741 39063 ft 487 kts 54°
2026-05-08 05:43 20.63612 -58.97677 39064 ft 490 kts 54°
2026-05-08 05:44 20.67360 -58.91590 39066 ft 490 kts 54°
2026-05-08 05:44 20.71100 -58.85509 39062 ft 489 kts 54°
2026-05-08 05:45 20.74827 -58.79443 39067 ft 488 kts 54°
2026-05-08 05:45 20.78545 -58.73387 39066 ft 487 kts 54°
2026-05-08 05:46 20.82258 -58.67331 39062 ft 487 kts 54°
2026-05-08 05:46 20.85970 -58.61272 39064 ft 487 kts 54°
2026-05-08 05:47 20.89647 -58.55260 39065 ft 484 kts 54°
2026-05-08 05:47 20.93347 -58.49206 39064 ft 482 kts 54°
2026-05-08 05:48 20.97019 -58.43194 39061 ft 484 kts 54°
2026-05-08 05:48 21.00686 -58.37183 39068 ft 487 kts 54°
2026-05-08 05:49 21.04385 -58.31112 39064 ft 487 kts 55°
2026-05-08 05:49 21.08077 -58.25044 39063 ft 486 kts 55°
2026-05-08 05:50 21.11747 -58.19006 39074 ft 483 kts 55°
2026-05-08 05:50 21.15424 -58.12953 39063 ft 486 kts 55°
2026-05-08 05:51 21.19116 -58.06868 39064 ft 487 kts 55°
2026-05-08 05:51 21.22813 -58.00767 39063 ft 487 kts 55°
2026-05-08 05:52 21.26500 -57.94675 39061 ft 487 kts 55°
2026-05-08 05:52 21.30191 -57.88570 39061 ft 489 kts 55°
2026-05-08 05:53 21.33883 -57.82459 39064 ft 493 kts 55°
2026-05-08 05:53 21.37614 -57.76274 39063 ft 493 kts 55°
2026-05-08 05:54 21.41339 -57.70092 39064 ft 493 kts 55°
2026-05-08 05:54 21.45059 -57.63911 39066 ft 493 kts 55°
2026-05-08 05:55 21.48803 -57.57687 39062 ft 498 kts 55°
2026-05-08 05:55 21.52560 -57.51431 39061 ft 497 kts 55°
2026-05-08 05:56 21.56297 -57.45200 39061 ft 496 kts 55°
2026-05-08 05:56 21.60026 -57.38977 39061 ft 494 kts 55°
2026-05-08 05:57 21.63728 -57.32794 39065 ft 497 kts 55°
2026-05-08 05:57 21.67486 -57.26511 39065 ft 502 kts 56°
2026-05-08 05:58 21.71258 -57.20193 39064 ft 499 kts 56°
2026-05-08 05:58 21.74999 -57.13920 39061 ft 497 kts 56°
2026-05-08 05:59 21.78729 -57.07659 39061 ft 497 kts 56°
2026-05-08 05:59 21.82478 -57.01362 39062 ft 502 kts 56°
2026-05-08 06:00 21.86243 -56.95028 39062 ft 502 kts 56°
2026-05-08 06:00 21.90010 -56.88684 39064 ft 502 kts 56°
2026-05-08 06:01 21.93750 -56.82375 39062 ft 499 kts 56°
2026-05-08 06:01 21.97493 -56.76057 39062 ft 503 kts 56°
2026-05-08 06:02 22.01263 -56.69686 39061 ft 504 kts 56°
2026-05-08 06:02 22.05029 -56.63313 39062 ft 503 kts 56°
2026-05-08 06:03 22.08765 -56.56984 39064 ft 503 kts 56°
2026-05-08 06:03 22.12527 -56.50603 39062 ft 504 kts 56°
2026-05-08 06:04 22.16287 -56.44217 39058 ft 503 kts 56°
2026-05-08 06:04 22.20036 -56.37842 39058 ft 503 kts 56°
2026-05-08 06:05 22.23782 -56.31466 39061 ft 503 kts 56°
2026-05-08 06:05 22.27526 -56.25085 39062 ft 505 kts 56°
2026-05-08 06:06 22.31295 -56.18655 39068 ft 506 kts 56°
2026-05-08 06:06 22.35051 -56.12237 39061 ft 504 kts 56°
2026-05-08 06:07 22.38790 -56.05840 39062 ft 503 kts 56°
2026-05-08 06:07 22.42494 -55.99498 39062 ft 502 kts 56°
2026-05-08 06:08 22.46228 -55.93095 39060 ft 502 kts 56°
2026-05-08 06:08 22.49328 -55.87775 39063 ft 502 kts 56°
2026-05-08 06:09 22.53033 -55.81407 39059 ft 500 kts 56°
2026-05-08 06:09 22.56727 -55.75050 39064 ft 500 kts 56°
2026-05-08 06:10 22.60444 -55.68650 39060 ft 504 kts 56°
2026-05-08 06:10 22.64174 -55.62217 39061 ft 504 kts 56°
2026-05-08 06:11 22.67894 -55.55792 39065 ft 504 kts 56°
2026-05-08 06:11 22.71604 -55.49375 39063 ft 502 kts 56°
2026-05-08 06:12 22.75322 -55.42940 39061 ft 505 kts 56°
2026-05-08 06:12 22.79025 -55.36522 39061 ft 505 kts 56°
2026-05-08 06:13 22.82746 -55.30065 39059 ft 505 kts 56°
2026-05-08 06:13 22.86468 -55.23598 39059 ft 506 kts 56°
2026-05-08 06:14 22.90198 -55.17109 39064 ft 508 kts 56°
2026-05-08 06:14 22.93927 -55.10613 39059 ft 507 kts 56°
2026-05-08 06:15 22.97651 -55.04117 39064 ft 506 kts 56°
2026-05-08 06:15 23.01401 -54.97689 39483 ft 499 kts 54°
2026-05-08 06:15 23.03334 -54.94573 39723 ft 495 kts 53°
2026-05-08 06:16 23.05066 -54.91839 39891 ft 493 kts 53°
2026-05-08 06:16 23.07011 -54.88789 40172 ft 488 kts 53°
2026-05-08 06:16 23.08934 -54.85772 40435 ft 484 kts 53°
2026-05-08 06:16 23.10849 -54.82757 40567 ft 483 kts 53°
2026-05-08 06:17 23.14649 -54.76736 40718 ft 484 kts 53°
2026-05-08 06:17 23.18457 -54.70673 40643 ft 490 kts 53°
2026-05-08 06:18 23.22303 -54.64535 40753 ft 491 kts 54°
2026-05-08 06:18 23.24226 -54.61462 40855 ft 490 kts 54°
2026-05-08 06:18 23.26140 -54.58401 40948 ft 490 kts 54°
2026-05-08 06:19 23.29969 -54.52275 41058 ft 489 kts 54°
2026-05-08 06:19 23.33792 -54.46155 41058 ft 489 kts 54°
2026-05-08 06:20 23.37598 -54.40054 41060 ft 492 kts 54°
2026-05-08 06:20 23.41452 -54.33869 41059 ft 493 kts 54°
2026-05-08 06:21 23.45288 -54.27703 41058 ft 491 kts 54°
2026-05-08 06:21 23.49115 -54.21544 41058 ft 490 kts 54°
2026-05-08 06:22 23.52945 -54.15375 41062 ft 493 kts 54°
2026-05-08 06:22 23.56783 -54.09184 41061 ft 494 kts 54°
2026-05-08 06:23 23.60628 -54.02975 41059 ft 493 kts 54°
2026-05-08 06:23 23.64435 -53.96819 41060 ft 492 kts 54°
2026-05-08 06:24 23.68270 -53.90611 41056 ft 494 kts 54°
2026-05-08 06:24 23.72115 -53.84380 41058 ft 495 kts 54°
2026-05-08 06:25 23.75961 -53.78138 41057 ft 495 kts 54°
2026-05-08 06:25 23.79796 -53.71906 41062 ft 495 kts 54°
2026-05-08 06:26 23.83640 -53.65652 41061 ft 496 kts 54°
2026-05-08 06:26 23.87488 -53.59384 41058 ft 497 kts 54°
2026-05-08 06:27 23.91333 -53.53112 41058 ft 497 kts 54°
2026-05-08 06:27 23.95178 -53.46834 41059 ft 496 kts 54°
2026-05-08 06:28 23.99013 -53.40562 41063 ft 495 kts 54°
2026-05-08 06:28 24.02827 -53.34318 41059 ft 493 kts 54°
2026-05-08 06:29 24.06626 -53.28090 41059 ft 492 kts 54°
2026-05-08 06:29 24.10428 -53.21850 41059 ft 493 kts 54°
2026-05-08 06:30 24.14248 -53.15574 41078 ft 497 kts 54°
2026-05-08 06:30 24.18082 -53.09266 41061 ft 496 kts 54°
2026-05-08 06:31 24.21868 -53.03027 41059 ft 494 kts 54°
2026-05-08 06:31 24.25670 -52.96755 41060 ft 495 kts 54°
2026-05-08 06:32 24.28239 -52.92513 41065 ft 498 kts 54°
2026-05-08 06:32 24.32076 -52.86171 41059 ft 500 kts 54°
2026-05-08 06:33 24.35906 -52.79830 41058 ft 497 kts 54°
2026-05-08 06:33 24.39719 -52.73509 41064 ft 497 kts 54°
2026-05-08 06:34 24.43551 -52.67151 41062 ft 501 kts 54°
2026-05-08 06:34 24.47397 -52.60760 41060 ft 502 kts 55°
2026-05-08 06:35 24.51236 -52.54371 41067 ft 500 kts 54°
2026-05-08 06:35 24.55039 -52.48033 41063 ft 500 kts 55°
2026-05-08 06:36 24.58875 -52.41636 41067 ft 503 kts 55°
2026-05-08 06:36 24.62723 -52.35207 41067 ft 503 kts 55°
2026-05-08 06:37 24.66570 -52.28773 41065 ft 503 kts 55°
2026-05-08 06:37 24.70408 -52.22343 41062 ft 503 kts 55°
2026-05-08 06:38 24.74256 -52.15891 41065 ft 505 kts 55°
2026-05-08 06:38 24.78102 -52.09430 41064 ft 505 kts 55°
2026-05-08 06:39 24.81943 -52.02971 41061 ft 505 kts 55°
2026-05-08 06:39 24.85797 -51.96481 41064 ft 507 kts 55°
2026-05-08 06:40 24.89654 -51.89979 41061 ft 507 kts 55°
2026-05-08 06:40 24.93502 -51.83481 41061 ft 507 kts 55°
2026-05-08 06:41 24.97331 -51.77006 41063 ft 508 kts 56°
2026-05-08 06:41 25.01191 -51.70471 41064 ft 510 kts 56°
2026-05-08 06:42 25.05062 -51.63908 41064 ft 510 kts 56°
2026-05-08 06:42 25.08933 -51.57336 41054 ft 510 kts 56°
2026-05-08 06:43 25.12808 -51.50748 41065 ft 512 kts 56°
2026-05-08 06:43 25.16689 -51.44141 41065 ft 513 kts 56°
2026-05-08 06:44 25.20561 -51.37539 41064 ft 512 kts 56°
2026-05-08 06:44 25.24404 -51.30978 41060 ft 512 kts 56°
2026-05-08 06:45 25.28273 -51.24364 41065 ft 514 kts 56°
2026-05-08 06:45 25.32151 -51.17726 41069 ft 514 kts 56°
2026-05-08 06:46 25.36023 -51.11087 41067 ft 513 kts 56°
2026-05-08 06:46 25.39893 -51.04443 41067 ft 513 kts 56°
2026-05-08 06:47 25.43762 -50.97791 41070 ft 513 kts 56°
2026-05-08 06:47 25.47619 -50.91150 41077 ft 513 kts 56°
2026-05-08 06:48 25.51449 -50.84547 41066 ft 513 kts 56°
2026-05-08 06:48 25.55331 -50.77845 41067 ft 514 kts 56°
2026-05-08 06:49 25.59164 -50.71217 41069 ft 515 kts 57°
2026-05-08 06:49 25.63019 -50.64542 41060 ft 515 kts 57°
2026-05-08 06:50 25.66880 -50.57848 41069 ft 515 kts 57°
2026-05-08 06:50 25.70737 -50.51149 41072 ft 516 kts 57°
2026-05-08 06:51 25.74600 -50.44431 41072 ft 516 kts 57°
2026-05-08 06:51 25.78457 -50.37716 41078 ft 517 kts 57°
2026-05-08 06:52 25.82313 -50.30990 41072 ft 517 kts 57°
2026-05-08 06:52 25.86168 -50.24257 41072 ft 517 kts 57°
2026-05-08 06:53 25.89999 -50.17556 41069 ft 517 kts 57°
2026-05-08 06:53 25.93853 -50.10806 41085 ft 519 kts 57°
2026-05-08 06:54 25.97714 -50.04033 41075 ft 519 kts 57°
2026-05-08 06:54 26.01672 -49.97329 41075 ft 518 kts 53°
2026-05-08 06:55 26.05981 -49.90887 41075 ft 519 kts 52°
2026-05-08 06:55 26.09624 -49.85580 41083 ft 520 kts 52°
2026-05-08 06:56 26.13979 -49.79169 41076 ft 519 kts 52°
2026-05-08 06:56 26.18309 -49.72718 41071 ft 519 kts 52°
2026-05-08 06:57 26.22624 -49.66255 41082 ft 521 kts 52°
2026-05-08 06:57 26.26943 -49.59776 41083 ft 521 kts 52°
2026-05-08 06:58 26.31255 -49.53300 41079 ft 520 kts 53°
2026-05-08 06:58 26.35568 -49.46816 41079 ft 521 kts 53°
2026-05-08 06:59 26.39883 -49.40319 41098 ft 522 kts 53°
2026-05-08 06:59 26.44201 -49.33810 41077 ft 521 kts 53°
2026-05-08 07:00 26.48502 -49.27315 41083 ft 521 kts 53°
2026-05-08 07:00 26.52817 -49.20792 41087 ft 523 kts 53°
2026-05-08 07:01 26.57127 -49.14265 41086 ft 523 kts 53°
2026-05-08 07:01 26.61414 -49.07765 41077 ft 522 kts 53°
2026-05-08 07:02 26.65721 -49.01224 41085 ft 524 kts 53°
2026-05-08 07:02 26.70052 -48.94639 41097 ft 525 kts 53°
2026-05-08 07:03 26.74368 -48.88065 41087 ft 524 kts 53°
2026-05-08 07:03 26.78677 -48.81492 41087 ft 524 kts 53°
2026-05-08 07:04 26.82980 -48.74921 41089 ft 524 kts 53°
2026-05-08 07:04 26.87284 -48.68336 41096 ft 523 kts 53°
2026-05-08 07:05 26.91578 -48.61758 41090 ft 523 kts 53°
2026-05-08 07:05 26.95881 -48.55156 41092 ft 525 kts 53°
2026-05-08 07:06 27.00183 -48.48547 41093 ft 525 kts 53°
2026-05-08 07:06 27.04475 -48.41943 41099 ft 523 kts 53°
2026-05-08 07:07 27.08769 -48.35324 41100 ft 525 kts 53°
2026-05-08 07:07 27.13043 -48.28729 41100 ft 526 kts 53°
2026-05-08 07:08 27.17342 -48.22085 41077 ft 525 kts 54°
2026-05-08 07:08 27.21637 -48.15436 41090 ft 526 kts 54°
2026-05-08 07:09 27.25935 -48.08772 41095 ft 526 kts 54°
2026-05-08 07:09 27.30227 -48.02110 41100 ft 526 kts 54°
2026-05-08 07:10 27.34515 -47.95441 41097 ft 526 kts 54°
2026-05-08 07:10 27.38805 -47.88761 41098 ft 527 kts 54°
2026-05-08 07:11 27.43092 -47.82075 41115 ft 527 kts 54°
2026-05-08 07:11 27.47372 -47.75389 41100 ft 526 kts 54°
2026-05-08 07:12 27.51660 -47.68680 41101 ft 527 kts 54°
2026-05-08 07:12 27.55937 -47.61978 41101 ft 527 kts 54°
2026-05-08 07:13 27.60187 -47.55310 41101 ft 526 kts 54°
2026-05-08 07:13 27.64454 -47.48604 41109 ft 527 kts 54°
2026-05-08 07:14 27.68720 -47.41888 41107 ft 527 kts 54°
2026-05-08 07:14 27.72992 -47.35153 41108 ft 527 kts 54°
2026-05-08 07:15 27.77257 -47.28419 41111 ft 527 kts 54°
2026-05-08 07:15 27.81499 -47.21712 41112 ft 527 kts 54°
2026-05-08 07:16 27.85759 -47.14964 41114 ft 527 kts 54°
2026-05-08 07:16 27.90013 -47.08217 41116 ft 527 kts 54°
2026-05-08 07:17 27.94270 -47.01454 41120 ft 527 kts 54°
2026-05-08 07:17 27.98516 -46.94697 41109 ft 527 kts 54°
2026-05-08 07:18 28.02771 -46.87916 41127 ft 529 kts 54°
2026-05-08 07:18 28.07030 -46.81116 41108 ft 529 kts 54°
2026-05-08 07:19 28.11283 -46.74317 41129 ft 529 kts 55°
2026-05-08 07:19 28.15529 -46.67518 41119 ft 528 kts 55°
2026-05-08 07:20 28.19766 -46.60723 41122 ft 527 kts 55°
2026-05-08 07:20 28.23993 -46.53932 41115 ft 528 kts 55°
2026-05-08 07:21 28.28197 -46.47169 41125 ft 528 kts 55°
2026-05-08 07:21 28.32424 -46.40357 41123 ft 527 kts 55°
2026-05-08 07:22 28.36642 -46.33549 41135 ft 528 kts 55°
2026-05-08 07:22 28.40865 -46.26721 41129 ft 528 kts 55°
2026-05-08 07:23 28.45082 -46.19893 41125 ft 527 kts 55°
2026-05-08 07:23 28.49283 -46.13079 41137 ft 527 kts 55°
2026-05-08 07:24 28.53497 -46.06234 41129 ft 528 kts 55°
2026-05-08 07:24 28.57695 -45.99403 41129 ft 527 kts 55°
2026-05-08 07:25 28.61891 -45.92565 41134 ft 528 kts 55°
2026-05-08 07:26 28.68191 -45.82277 41136 ft 527 kts 55°
2026-05-08 07:26 28.72382 -45.75420 41127 ft 527 kts 55°
2026-05-08 07:27 28.76542 -45.68600 41145 ft 528 kts 55°
2026-05-08 07:27 28.80738 -45.61714 41141 ft 527 kts 55°
2026-05-08 07:28 28.84916 -45.54843 41148 ft 527 kts 55°
2026-05-08 07:28 28.89106 -45.47942 41146 ft 529 kts 55°
2026-05-08 07:29 28.93284 -45.41049 41143 ft 527 kts 55°
2026-05-08 07:29 28.97453 -45.34160 41133 ft 528 kts 55°
2026-05-08 07:30 29.01604 -45.27289 41151 ft 528 kts 55°
2026-05-08 07:30 29.05775 -45.20374 41153 ft 528 kts 55°
2026-05-08 07:31 29.09936 -45.13464 41162 ft 528 kts 55°
2026-05-08 07:31 29.14095 -45.06545 41153 ft 528 kts 55°
2026-05-08 07:32 29.18250 -44.99622 41151 ft 527 kts 56°
2026-05-08 07:32 29.22395 -44.92704 41154 ft 527 kts 56°
2026-05-08 07:33 29.26535 -44.85783 41153 ft 527 kts 56°
2026-05-08 07:33 29.30674 -44.78853 41154 ft 527 kts 56°
2026-05-08 07:34 29.34783 -44.71959 41158 ft 527 kts 56°
2026-05-08 07:34 29.38918 -44.65012 41153 ft 527 kts 56°
2026-05-08 07:35 29.43046 -44.58064 41159 ft 527 kts 56°
2026-05-08 07:35 29.47174 -44.51104 41160 ft 528 kts 56°
2026-05-08 07:36 29.51297 -44.44142 41158 ft 528 kts 56°
2026-05-08 07:36 29.55421 -44.37166 41176 ft 528 kts 56°
2026-05-08 07:37 29.59540 -44.30186 41163 ft 528 kts 56°
2026-05-08 07:37 29.63662 -44.23190 41164 ft 528 kts 56°
2026-05-08 07:38 29.67779 -44.16190 41166 ft 528 kts 56°
2026-05-08 07:38 29.71889 -44.09190 41172 ft 528 kts 56°
2026-05-08 07:39 29.75999 -44.02179 41163 ft 528 kts 56°
2026-05-08 07:39 29.80103 -43.95165 41166 ft 528 kts 56°
2026-05-08 07:40 29.84204 -43.88143 41181 ft 528 kts 56°
2026-05-08 07:40 29.88304 -43.81111 41166 ft 529 kts 56°
2026-05-08 07:41 29.92421 -43.74040 41183 ft 533 kts 56°
2026-05-08 07:41 29.96545 -43.66943 41168 ft 533 kts 56°
2026-05-08 07:42 30.00645 -43.59875 41179 ft 533 kts 56°
2026-05-08 07:42 30.04760 -43.52768 41180 ft 533 kts 56°
2026-05-08 07:43 30.08877 -43.45646 41187 ft 533 kts 56°
2026-05-08 07:43 30.12295 -43.39723 41186 ft 533 kts 56°
2026-05-08 07:44 30.16428 -43.32549 41184 ft 533 kts 56°
2026-05-08 07:44 30.20501 -43.25467 41171 ft 533 kts 56°
2026-05-08 07:45 30.24609 -43.18311 41187 ft 533 kts 56°
2026-05-08 07:45 30.28707 -43.11161 41187 ft 532 kts 56°
2026-05-08 07:46 30.32793 -43.04018 41187 ft 532 kts 56°
2026-05-08 07:46 30.36803 -42.96998 41186 ft 531 kts 56°
2026-05-08 07:47 30.40876 -42.89852 41191 ft 531 kts 56°
2026-05-08 07:47 30.44563 -42.83373 41194 ft 531 kts 56°
2026-05-08 07:48 30.48624 -42.76225 41196 ft 531 kts 56°
2026-05-08 07:48 30.52687 -42.69060 41196 ft 531 kts 56°
2026-05-08 07:49 30.56740 -42.61900 41211 ft 531 kts 56°
2026-05-08 07:49 30.60766 -42.54775 41194 ft 531 kts 56°
2026-05-08 07:50 30.64819 -42.47589 41194 ft 531 kts 56°
2026-05-08 07:50 30.68860 -42.40413 41214 ft 531 kts 56°
2026-05-08 07:51 30.72898 -42.33227 41196 ft 531 kts 56°
2026-05-08 07:51 30.76935 -42.26031 41218 ft 531 kts 56°
2026-05-08 07:52 30.80962 -42.18839 41203 ft 531 kts 56°
2026-05-08 07:52 30.84967 -42.11674 41206 ft 531 kts 56°
2026-05-08 07:53 30.88991 -42.04461 41203 ft 532 kts 56°
2026-05-08 07:53 30.93016 -41.97234 41215 ft 531 kts 56°
2026-05-08 07:54 30.97035 -41.90004 41226 ft 532 kts 56°
2026-05-08 07:54 31.01052 -41.82763 41226 ft 532 kts 56°
2026-05-08 07:55 31.05074 -41.75501 41219 ft 531 kts 56°
2026-05-08 07:55 31.09067 -41.68277 41220 ft 530 kts 56°
2026-05-08 07:56 31.13062 -41.61037 41219 ft 530 kts 56°
2026-05-08 07:56 31.17030 -41.53833 41223 ft 530 kts 56°
2026-05-08 07:57 31.21015 -41.46584 41229 ft 531 kts 56°
2026-05-08 07:57 31.25008 -41.39306 41226 ft 531 kts 56°
2026-05-08 07:58 31.28992 -41.32032 41237 ft 531 kts 56°
2026-05-08 07:58 31.32974 -41.24748 41238 ft 531 kts 56°
2026-05-08 07:59 31.36946 -41.17468 41234 ft 531 kts 56°
2026-05-08 07:59 31.40920 -41.10171 41236 ft 531 kts 56°
2026-05-08 08:00 31.44887 -41.02872 41247 ft 531 kts 56°
2026-05-08 08:00 31.48823 -40.95617 41241 ft 531 kts 56°
2026-05-08 08:01 31.52780 -40.88311 41248 ft 532 kts 56°
2026-05-08 08:01 31.56741 -40.80982 41245 ft 532 kts 56°
2026-05-08 08:02 31.60698 -40.73648 41250 ft 532 kts 56°
2026-05-08 08:02 31.64650 -40.66307 41250 ft 532 kts 56°
2026-05-08 08:03 31.68602 -40.58953 41249 ft 532 kts 56°
2026-05-08 08:03 31.72547 -40.51599 41251 ft 532 kts 56°
2026-05-08 08:04 31.76484 -40.44244 41251 ft 531 kts 55°
2026-05-08 08:04 31.78446 -40.40575 40979 ft 530 kts 56°
2026-05-08 08:04 31.80410 -40.36897 40575 ft 528 kts 56°
2026-05-08 08:04 31.82331 -40.33294 40206 ft 525 kts 56°
2026-05-08 08:05 31.84267 -40.29662 39768 ft 523 kts 56°
2026-05-08 08:05 31.86196 -40.26039 39385 ft 522 kts 56°
2026-05-08 08:05 31.88123 -40.22418 39280 ft 523 kts 56°
2026-05-08 08:06 31.92006 -40.15114 39260 ft 529 kts 56°
2026-05-08 08:06 31.95910 -40.07752 39262 ft 530 kts 56°
2026-05-08 08:07 31.99711 -40.00308 39264 ft 531 kts 63°
2026-05-08 08:07 32.02725 -39.92353 39263 ft 532 kts 66°
2026-05-08 08:08 32.05565 -39.84278 39265 ft 533 kts 66°
2026-05-08 08:08 32.08342 -39.76246 39267 ft 533 kts 66°
2026-05-08 08:09 32.11152 -39.68135 39271 ft 533 kts 66°
2026-05-08 08:09 32.13967 -39.60026 39267 ft 533 kts 66°
2026-05-08 08:10 32.16758 -39.51978 39266 ft 533 kts 66°
2026-05-08 08:10 32.19563 -39.43870 39268 ft 533 kts 66°
2026-05-08 08:11 32.22363 -39.35756 39266 ft 533 kts 66°
2026-05-08 08:11 32.25158 -39.27635 39269 ft 533 kts 66°
2026-05-08 08:12 32.27945 -39.19517 39267 ft 533 kts 66°
2026-05-08 08:12 32.30729 -39.11388 39278 ft 533 kts 66°
2026-05-08 08:13 32.33508 -39.03253 39267 ft 533 kts 66°
2026-05-08 08:13 32.36282 -38.95113 39269 ft 533 kts 66°
2026-05-08 08:14 32.39050 -38.86968 39271 ft 534 kts 66°
2026-05-08 08:14 32.41812 -38.78823 39276 ft 533 kts 66°
2026-05-08 08:15 32.44570 -38.70667 39274 ft 533 kts 66°
2026-05-08 08:15 32.47307 -38.62556 39271 ft 533 kts 66°
2026-05-08 08:16 32.50055 -38.54390 39274 ft 534 kts 66°
2026-05-08 08:16 32.52800 -38.46212 39275 ft 534 kts 66°
2026-05-08 08:17 32.55538 -38.38033 39273 ft 534 kts 66°
2026-05-08 08:17 32.58267 -38.29861 39273 ft 533 kts 66°
2026-05-08 08:18 32.60994 -38.21673 39276 ft 533 kts 66°
2026-05-08 08:18 32.63713 -38.13491 39279 ft 533 kts 65°
2026-05-08 08:19 32.66423 -38.05312 39276 ft 532 kts 65°
2026-05-08 08:19 32.69122 -37.97147 39274 ft 532 kts 66°
2026-05-08 08:20 32.71820 -37.88964 39273 ft 532 kts 65°
2026-05-08 08:20 32.74511 -37.80781 39276 ft 532 kts 65°
2026-05-08 08:21 32.77179 -37.72647 39276 ft 532 kts 66°
2026-05-08 08:21 32.79875 -37.64406 39278 ft 531 kts 65°
2026-05-08 08:22 32.82527 -37.56280 39277 ft 531 kts 65°
2026-05-08 08:22 32.85190 -37.48096 39277 ft 530 kts 66°
2026-05-08 08:23 32.87847 -37.39914 39276 ft 530 kts 65°
2026-05-08 08:23 32.90493 -37.31739 39273 ft 529 kts 66°
2026-05-08 08:24 32.93134 -37.23564 39272 ft 529 kts 66°
2026-05-08 08:24 32.95769 -37.15381 39279 ft 529 kts 65°
2026-05-08 08:25 32.98397 -37.07201 39277 ft 529 kts 65°
2026-05-08 08:25 33.01025 -36.99001 39289 ft 529 kts 66°
2026-05-08 08:26 33.03645 -36.90799 39274 ft 530 kts 65°
2026-05-08 08:26 33.06267 -36.82575 39264 ft 532 kts 65°
2026-05-08 08:27 33.08874 -36.74374 39284 ft 532 kts 65°
2026-05-08 08:27 33.11492 -36.66113 39272 ft 531 kts 65°
2026-05-08 08:28 33.14099 -36.57870 39278 ft 531 kts 65°
2026-05-08 08:28 33.16699 -36.49623 39258 ft 531 kts 65°
2026-05-08 08:29 33.19294 -36.41374 39259 ft 531 kts 65°
2026-05-08 08:29 33.21868 -36.33165 39262 ft 531 kts 66°
2026-05-08 08:30 33.24452 -36.24906 39265 ft 531 kts 66°
2026-05-08 08:30 33.28314 -36.12515 39262 ft 529 kts 66°